Greeley, CO

4:16 PM MDT on September 26, 2017 (GMT -0600)
Greeley-Weld County

Weather History for KGXY - March, 2014

Change the Weather History Date:

Tuesday, March 11, 2014

  Actual Average Record
Temperature  
Mean Temperature 36 °F -  
Max Temperature 48 °F - 79 °F (1972)
Min Temperature 24 °F - 3 °F (1998)
Degree Days  
Heating Degree Days 29    
Month to date heating degree days  
Cooling Degree Days 0    
Month to date cooling degree days  
Moisture  
Dew Point 23 °F    
Average Humidity 55    
Maximum Humidity 70    
Minimum Humidity 43    
Precipitation  
Precipitation 0.00 in - 0.27 in (2017)
Sea Level Pressure  
Sea Level Pressure 29.99 in    
Wind  
Wind Speed 19 mph (North)    
Max Wind Speed 33 mph    
Max Gust Speed 43 mph    
Visibility 10 miles    
Events      
T = Trace of Precipitation, MM = Missing Value Source: NWS Daily Summary

Daily Weather History Graph

Daily Weather History Graph

Search for Another Location

Airport or City:

Trip Planner

Search our weather history database for the weather conditions in past years. The results will help you decide how hot, cold, wet, or windy it might be!

Date:

Astronomy

Mar. 11, 2014 Rise Set
Actual Time 7:16 AM MDT 7:01 PM MDT
Civil Twilight 6:49 AM MDT 7:28 PM MDT
Nautical Twilight 6:17 AM MDT 7:59 PM MDT
Astronomical Twilight 5:45 AM MDT 8:31 PM MDT
Moon 2:39 PM MDT (3/11) 4:12 AM MDT (3/11)
Length of Visible Light 12h 38m
Length of Day
11h 44m
Waxing Gibbous, 78% of the Moon is Illuminated
Mar 11
Waxing Gibbous
Mar 16
Full
Mar 23
Last Quarter
Mar 30
New
Apr 7
First Quarter

Hourly Weather History & Observations

Time (MDT) Temp. Windchill Dew Point Humidity Pressure Visibility Wind Dir Wind Speed Gust Speed Precip Events Conditions
12:15 AM 46.4 °F 42.4 °F 26.6 °F 46% 29.63 in 10.0 mi NNE 8.1 mph - N/A   Clear
12:35 AM 48.2 °F - 26.6 °F 43% 29.64 in 10.0 mi NNW 5.8 mph - N/A   Clear
12:55 AM 44.6 °F 39.7 °F 26.6 °F 49% 29.64 in 10.0 mi North 9.2 mph - N/A   Clear
1:15 AM 42.8 °F 38.0 °F 26.6 °F 53% 29.64 in 10.0 mi NNW 8.1 mph - N/A   Clear
1:35 AM 46.4 °F 40.1 °F 26.6 °F 46% 29.65 in 10.0 mi North 15.0 mph - N/A   Clear
1:55 AM 46.4 °F 39.2 °F 26.6 °F 46% 29.65 in 10.0 mi NNW 18.4 mph - N/A   Clear
2:15 AM 46.4 °F 39.0 °F 26.6 °F 46% 29.65 in 10.0 mi North 19.6 mph - N/A   Clear
2:35 AM 44.6 °F 36.9 °F 26.6 °F 49% 29.64 in 10.0 mi NNW 18.4 mph - N/A   Clear
2:55 AM 44.6 °F 36.4 °F 26.6 °F 49% 29.64 in 10.0 mi NNW 20.7 mph 26.5 mph N/A   Clear
3:15 AM 46.4 °F 39.2 °F 26.6 °F 46% 29.64 in 10.0 mi North 18.4 mph - N/A   Clear
3:35 AM 44.6 °F 35.5 °F 26.6 °F 49% 29.64 in 10.0 mi NNW 25.3 mph 31.1 mph N/A   Clear
3:55 AM 44.6 °F 36.1 °F 26.6 °F 49% 29.65 in 10.0 mi NNW 21.9 mph 29.9 mph N/A   Clear
4:15 AM 42.8 °F 34.3 °F 26.6 °F 53% 29.65 in 10.0 mi North 19.6 mph - N/A   Clear
4:35 AM 44.6 °F 35.9 °F 26.6 °F 49% 29.65 in 10.0 mi North 23.0 mph 31.1 mph N/A   Clear
4:55 AM 42.8 °F 34.0 °F 26.6 °F 53% 29.65 in 10.0 mi North 20.7 mph - N/A   Clear
5:15 AM 41.0 °F 31.4 °F 26.6 °F 57% 29.66 in 10.0 mi North 21.9 mph - N/A   Clear
5:35 AM 42.8 °F 32.7 °F 26.6 °F 53% 29.66 in 10.0 mi NNW 27.6 mph 31.1 mph N/A   Clear
5:55 AM 44.6 °F 35.3 °F 26.6 °F 49% 29.68 in 10.0 mi NW 26.5 mph 36.8 mph N/A   Clear
6:15 AM 42.8 °F 33.1 °F 24.8 °F 49% 29.70 in 10.0 mi NW 25.3 mph 31.1 mph N/A   Clear
6:35 AM 42.8 °F 34.3 °F 24.8 °F 49% 29.72 in 10.0 mi NW 19.6 mph - N/A   Clear
6:55 AM 41.0 °F 31.9 °F 24.8 °F 53% 29.73 in 10.0 mi NNW 19.6 mph - N/A   Clear
7:15 AM 42.8 °F 32.5 °F 23.0 °F 46% 29.72 in 10.0 mi NW 28.8 mph 33.4 mph N/A   Partly Cloudy
7:35 AM 42.8 °F 33.8 °F 24.8 °F 49% 29.73 in 10.0 mi NW 21.9 mph 29.9 mph N/A   Mostly Cloudy
7:55 AM 42.8 °F 33.8 °F 24.8 °F 49% 29.76 in 10.0 mi North 21.9 mph 28.8 mph N/A   Overcast
8:15 AM 42.8 °F 34.5 °F 24.8 °F 49% 29.78 in 10.0 mi North 18.4 mph - N/A   Overcast
8:35 AM 42.8 °F 33.8 °F 26.6 °F 53% 29.80 in 10.0 mi North 21.9 mph - N/A   Overcast
8:55 AM 41.0 °F 31.6 °F 26.6 °F 57% 29.82 in 10.0 mi North 20.7 mph 33.4 mph N/A   Mostly Cloudy
9:15 AM 39.2 °F 28.0 °F 28.4 °F 65% 29.84 in 10.0 mi North 26.5 mph 31.1 mph N/A   Mostly Cloudy
9:35 AM 39.2 °F 28.5 °F 28.4 °F 65% 29.86 in 10.0 mi North 24.2 mph 33.4 mph N/A   Scattered Clouds
9:55 AM 39.2 °F 29.0 °F 26.6 °F 61% 29.88 in 10.0 mi NNE 21.9 mph 28.8 mph N/A   Mostly Cloudy
10:15 AM 39.2 °F 28.5 °F 26.6 °F 61% 29.90 in 10.0 mi NNE 24.2 mph 31.1 mph N/A   Overcast
10:35 AM 39.2 °F 27.8 °F 26.6 °F 61% 29.92 in 10.0 mi NNE 27.6 mph 34.5 mph N/A   Mostly Cloudy
10:55 AM 39.2 °F 27.2 °F 26.6 °F 61% 29.94 in 10.0 mi NNE 31.1 mph 39.1 mph N/A   Scattered Clouds
11:15 AM 39.2 °F 27.4 °F 26.6 °F 61% 29.96 in 10.0 mi NNE 29.9 mph 35.7 mph N/A   Scattered Clouds
11:35 AM 39.2 °F 27.2 °F 24.8 °F 56% 29.98 in 10.0 mi NNE 31.1 mph 40.3 mph N/A   Mostly Cloudy
11:55 AM 37.4 °F 25.2 °F 24.8 °F 60% 30.01 in 10.0 mi NNE 28.8 mph 42.6 mph N/A   Overcast
12:15 PM 37.4 °F 24.4 °F 24.8 °F 60% 30.02 in 10.0 mi NNE 33.4 mph 40.3 mph N/A   Overcast
12:35 PM 39.2 °F 27.0 °F 23.0 °F 52% 30.04 in 10.0 mi NNE 32.2 mph 40.3 mph N/A   Overcast
12:55 PM 37.4 °F 25.0 °F 21.2 °F 52% 30.07 in 10.0 mi North 29.9 mph 38.0 mph N/A   Overcast
1:15 PM 37.4 °F 25.9 °F 21.2 °F 52% 30.09 in 10.0 mi NNE 25.3 mph 35.7 mph N/A   Overcast
1:35 PM 37.4 °F 25.4 °F 21.2 °F 52% 30.11 in 10.0 mi NNE 27.6 mph 34.5 mph N/A   Overcast
1:55 PM 37.4 °F 26.4 °F 21.2 °F 52% 30.13 in 10.0 mi NNE 23.0 mph 32.2 mph N/A   Overcast
2:15 PM 35.6 °F 23.7 °F 21.2 °F 56% 30.14 in 5.0 mi NNE 24.2 mph 29.9 mph N/A   Mostly Cloudy
2:35 PM 33.8 °F 23.2 °F 24.8 °F 70% 30.16 in 1.8 mi North 17.3 mph 27.6 mph N/A   Overcast
2:55 PM 33.8 °F 22.2 °F 24.8 °F 70% 30.17 in 1.2 mi North 20.7 mph - N/A   Overcast
3:15 PM 33.8 °F 21.0 °F 24.8 °F 70% 30.18 in 1.5 mi North 25.3 mph 31.1 mph N/A   Overcast
3:35 PM 35.6 °F 23.4 °F 24.8 °F 65% 30.19 in 10.0 mi North 25.3 mph 32.2 mph N/A   Overcast
3:55 PM 35.6 °F 23.2 °F 24.8 °F 65% 30.19 in 10.0 mi North 26.5 mph 32.2 mph N/A   Overcast
4:15 PM 37.4 °F 25.6 °F 24.8 °F 60% 30.20 in 10.0 mi North 26.5 mph 33.4 mph N/A   Mostly Cloudy
4:35 PM 35.6 °F 22.5 °F 23.0 °F 60% 30.21 in 10.0 mi North 29.9 mph 36.8 mph N/A   Mostly Cloudy
4:55 PM 35.6 °F 22.5 °F 21.2 °F 56% 30.22 in 10.0 mi North 29.9 mph 35.7 mph N/A   Overcast
5:15 PM 35.6 °F 22.7 °F 21.2 °F 56% 30.23 in 10.0 mi North 28.8 mph 35.7 mph N/A   Mostly Cloudy
5:35 PM 37.4 °F 25.9 °F 19.4 °F 48% 30.24 in 10.0 mi North 25.3 mph 31.1 mph N/A   Mostly Cloudy
5:55 PM 35.6 °F 23.7 °F 19.4 °F 52% 30.25 in 10.0 mi North 24.2 mph - N/A   Partly Cloudy
6:15 PM 35.6 °F 23.7 °F 17.6 °F 48% 30.26 in 10.0 mi North 24.2 mph 29.9 mph N/A   Clear
6:35 PM 33.8 °F 22.5 °F 15.8 °F 48% 30.27 in 10.0 mi North 19.6 mph - N/A   Clear
6:55 PM 33.8 °F 21.9 °F 17.6 °F 52% 30.27 in 10.0 mi North 21.9 mph 25.3 mph N/A   Clear
7:15 PM 32.0 °F 22.5 °F 15.8 °F 51% 30.29 in 10.0 mi North 12.7 mph - N/A   Clear
7:35 PM 30.2 °F 19.8 °F 17.6 °F 60% 30.30 in 10.0 mi North 13.8 mph - N/A   Clear
7:55 PM 30.2 °F 18.5 °F 17.6 °F 60% 30.30 in 10.0 mi North 17.3 mph - N/A   Clear
8:15 PM 30.2 °F 20.2 °F 17.6 °F 60% 30.32 in 10.0 mi NNW 12.7 mph - N/A   Clear
8:35 PM 30.2 °F 20.2 °F 17.6 °F 60% 30.32 in 10.0 mi North 12.7 mph - N/A   Clear
8:55 PM 30.2 °F 19.8 °F 17.6 °F 60% 30.33 in 10.0 mi North 13.8 mph - N/A   Clear
9:15 PM 28.4 °F 17.0 °F 15.8 °F 59% 30.34 in 10.0 mi North 15.0 mph - N/A   Clear
9:35 PM 28.4 °F 19.1 °F 14.0 °F 55% 30.34 in 10.0 mi NNW 10.4 mph - N/A   Clear
9:55 PM 28.4 °F 19.1 °F 15.8 °F 59% 30.35 in 10.0 mi NNW 10.4 mph - N/A   Clear
10:15 PM 26.6 °F 15.2 °F 15.8 °F 64% 30.35 in 10.0 mi North 13.8 mph - N/A   Clear
10:35 PM 26.6 °F 16.2 °F 15.8 °F 64% 30.35 in 10.0 mi NNW 11.5 mph - N/A   Clear
10:55 PM 26.6 °F 16.2 °F 14.0 °F 59% 30.35 in 10.0 mi North 11.5 mph - N/A   Clear
11:15 PM 24.8 °F 15.3 °F 12.2 °F 59% 30.35 in 10.0 mi North 9.2 mph - N/A   Clear
11:35 PM 24.8 °F 14.0 °F 15.8 °F 69% 30.34 in 10.0 mi NNW 11.5 mph - N/A   Clear
11:55 PM 24.8 °F 16.1 °F 14.0 °F 64% 30.34 in 10.0 mi NW 8.1 mph - N/A   Clear